Weather History for KINL - May, 2013

Change the Weather History Date:

Friday, May 31, 2013

  Actual Average Record
Temperature  
Mean Temperature 63 °F 56 °F  
Max Temperature 73 °F 69 °F 90 °F (1988)
Min Temperature 52 °F 44 °F 29 °F (1910)
Degree Days  
Heating Degree Days 2 9  
Month to date heating degree days 468 419  
Since 1 July heating degree days 10544 10057  
Cooling Degree Days 0 1  
Month to date cooling degree days 3 8  
Year to date cooling degree days 3 9  
Growing Degree Days 14 (Base 50)    
Moisture  
Dew Point 60 °F    
Average Humidity 77    
Maximum Humidity 100    
Minimum Humidity 53    
Precipitation  
Precipitation 0.75 in 0.11 in 1.52 in (1977)
Month to date precipitation 5.70 2.86  
Year to date precipitation 12.38 6.53  
Snow  
Snow 0.00 in 0.00 in 0.00 in (2001)
Month to date snowfall T 0.2  
Since 1 July snowfall 98.6 71.0  
Snow Depth 0.00 in    
Sea Level Pressure  
Sea Level Pressure 29.51 in    
Wind  
Wind Speed 10 mph (ESE)    
Max Wind Speed 23 mph    
Max Gust Speed 38 mph    
Visibility 8 miles    
Events Rain    
T = Trace of Precipitation, MM = Missing Value Source: NWS Daily Summary

Daily Weather History Graph

Daily Weather History Graph

Search for Another Location

Airport or City:

Trip Planner

Search our weather history database for the weather conditions in past years. The results will help you decide how hot, cold, wet, or windy it might be!

Date:

Astronomy

May. 31, 2013 Rise Set
Actual Time 5:16 AM CDT 9:06 PM CDT
Civil Twilight 4:35 AM CDT 9:47 PM CDT
Nautical Twilight 3:40 AM CDT 10:43 PM CDT
Astronomical Twilight 2:16 AM CDT 12:09 AM CDT
Moon 1:17 AM CDT (5/31) 12:58 PM CDT (5/31)
Length of Visible Light 17h 11m
Length of Day
15h 50m
Waning Gibbous, 51% of the Moon is Illuminated
May 31
Waning Gibbous
May 31
Last Quarter
Jun 8
New
Jun 16
First Quarter
Jun 23
Full

Hourly Weather History & Observations

Time (CDT) Temp. Dew Point Humidity Pressure Visibility Wind Dir Wind Speed Gust Speed Precip Events Conditions
12:55 AM 64.0 °F 63.0 °F 96% 29.54 in 9.0 mi ENE 8.1 mph - N/A   Overcast
1:55 AM 64.0 °F 62.1 °F 93% 29.53 in 10.0 mi ENE 9.2 mph - 0.00 in Rain Light Rain
2:55 AM 63.0 °F 62.1 °F 97% 29.50 in 6.0 mi ENE 11.5 mph - 0.01 in Rain Light Rain
3:10 AM 62.6 °F 60.8 °F 94% 29.49 in 4.0 mi ENE 10.4 mph - 0.00 in Rain Light Rain
3:27 AM 62.6 °F 60.8 °F 94% 29.49 in 1.8 mi East 10.4 mph 18.4 mph 0.16 in Rain Heavy Rain
3:35 AM 62.6 °F 60.8 °F 94% 29.48 in 2.0 mi ENE 9.2 mph - 0.23 in Rain Rain
3:45 AM 60.8 °F 60.8 °F 100% 29.49 in 7.0 mi East 10.4 mph - 0.24 in Rain Heavy Rain
3:55 AM 61.0 °F 60.1 °F 97% 29.49 in 2.0 mi ENE 8.1 mph - 0.37 in Rain Light Rain
4:05 AM 62.6 °F 60.8 °F 94% 29.48 in 4.0 mi ENE 9.2 mph - 0.01 in Rain Rain
4:15 AM 62.6 °F 60.8 °F 94% 29.48 in 3.0 mi East 8.1 mph - 0.02 in Rain Rain
4:24 AM 62.6 °F 60.8 °F 94% 29.48 in 2.0 mi ESE 11.5 mph - 0.06 in Rain Rain
4:47 AM 62.6 °F 62.6 °F 100% 29.49 in 4.0 mi ESE 9.2 mph - 0.11 in Rain Rain
4:55 AM 63.0 °F 62.1 °F 97% 29.48 in 2.5 mi SE 10.4 mph - 0.13 in Rain Light Rain
4:59 AM 62.6 °F 62.6 °F 100% 29.48 in 3.0 mi SE 10.4 mph - 0.00 in Rain Light Rain
5:48 AM 62.6 °F 60.8 °F 94% 29.48 in 7.0 mi SE 6.9 mph - 0.01 in Rain Light Rain
5:55 AM 62.1 °F 61.0 °F 96% 29.49 in 9.0 mi SE 5.8 mph - 0.02 in Rain Light Rain
6:11 AM 62.6 °F 60.8 °F 94% 29.49 in 10.0 mi ESE 6.9 mph - 0.00 in   Overcast
6:23 AM 62.6 °F 60.8 °F 94% 29.49 in 10.0 mi ESE 6.9 mph - 0.00 in   Overcast
6:55 AM 62.1 °F 61.0 °F 96% 29.49 in 5.0 mi ESE 6.9 mph - 0.00 in Rain Light Rain
7:55 AM 63.0 °F 62.1 °F 97% 29.49 in 10.0 mi ESE 8.1 mph - 0.00 in   Overcast
8:40 AM 64.4 °F 60.8 °F 88% 29.49 in 10.0 mi SE 9.2 mph 17.3 mph N/A   Overcast
8:55 AM 64.9 °F 61.0 °F 87% 29.48 in 10.0 mi SSE 8.1 mph - N/A   Overcast
9:08 AM 64.4 °F 60.8 °F 88% 29.49 in 10.0 mi SSE 8.1 mph - N/A   Overcast
9:32 AM 66.2 °F 60.8 °F 83% 29.48 in 10.0 mi SE 10.4 mph - N/A   Mostly Cloudy
9:39 AM 66.2 °F 60.8 °F 83% 29.49 in 10.0 mi SE 11.5 mph - N/A   Mostly Cloudy
9:55 AM 66.0 °F 60.1 °F 81% 29.49 in 10.0 mi SSE 11.5 mph 21.9 mph N/A   Mostly Cloudy
10:55 AM 66.0 °F 59.0 °F 78% 29.49 in 10.0 mi SSE 6.9 mph 16.1 mph N/A   Mostly Cloudy
11:11 AM 64.4 °F 59.0 °F 83% 29.49 in 10.0 mi ESE 11.5 mph - N/A   Mostly Cloudy
11:55 AM 64.9 °F 59.0 °F 81% 29.49 in 10.0 mi SE 11.5 mph - N/A   Partly Cloudy
12:14 PM 66.2 °F 59.0 °F 78% 29.50 in 10.0 mi SSE 10.4 mph - N/A   Mostly Cloudy
12:55 PM 66.9 °F 59.0 °F 76% 29.49 in 10.0 mi ESE 8.1 mph - N/A   Mostly Cloudy
1:08 PM 68.0 °F 59.0 °F 73% 29.49 in 10.0 mi ESE 4.6 mph - N/A   Scattered Clouds
1:55 PM 70.0 °F 60.1 °F 71% 29.49 in 10.0 mi ESE 9.2 mph - N/A   Mostly Cloudy
2:55 PM 66.9 °F 57.0 °F 70% 29.52 in 3.0 mi SSW 25.3 mph 38.0 mph 0.00 in Rain Light Rain
3:01 PM 66.2 °F 55.4 °F 68% 29.50 in 1.2 mi Variable 3.5 mph 38.0 mph 0.22 in Rain Heavy Rain
3:07 PM 66.2 °F 55.4 °F 68% 29.51 in 5.0 mi Calm Calm - 0.22 in Rain Light Rain
3:55 PM 68.0 °F 61.0 °F 78% 29.51 in 10.0 mi Calm Calm - 0.22 in   Overcast
4:55 PM 72.0 °F 55.0 °F 55% 29.50 in 10.0 mi SW 5.8 mph - N/A   Partly Cloudy
5:55 PM 71.1 °F 54.0 °F 55% 29.53 in 10.0 mi West 6.9 mph - N/A   Overcast
6:55 PM 66.0 °F 60.1 °F 81% 29.54 in 10.0 mi North 10.4 mph - N/A   Overcast
7:45 PM 60.8 °F 57.2 °F 88% 29.56 in 10.0 mi North 10.4 mph - N/A   Overcast
7:55 PM 61.0 °F 57.0 °F 87% 29.56 in 10.0 mi North 11.5 mph - N/A   Overcast
8:55 PM 57.9 °F 55.9 °F 93% 29.59 in 10.0 mi NNE 12.7 mph 21.9 mph N/A   Overcast
9:55 PM 57.0 °F 55.0 °F 93% 29.59 in 10.0 mi North 11.5 mph - N/A   Overcast
10:55 PM 55.9 °F 53.1 °F 90% 29.60 in 10.0 mi North 10.4 mph 18.4 mph N/A   Overcast
11:55 PM 54.0 °F 53.1 °F 97% 29.61 in 10.0 mi NNE 12.7 mph 19.6 mph N/A   Overcast